UHSSUHMM

Guest
Details From UHSS - Khomutovo
To UHMM - Magadan Sokol
Flight Number -
Tags Generated
Created
Modified
Stats Distance 833 nm / 1,542 km
Max Altitude 0 ft / 0 m
Waypoints 3
Social Downloads 0
Likes 0
Share VATSIM

Download

Looking for another format? Having issues loading an existing format? Contact us
Advertisement - Login to hide

Notes

Generated

Route

UHSS F UHMM

ID Type Via Altitude Latitude Longitude Leg Dist Tot Dist Heading (true) Name
O UHSS APT - 0 ft / 0 m 46.87036˚ 142.71727˚ - 0 nm - -
F NDB - 0 ft / 0 m 59.91240˚ 150.66490˚ 831 nm 831 nm 17° / 23° Magadan NDB
O UHMM APT - 0 ft / 0 m 59.91186˚ 150.68961˚ 0 nm 832 nm 92° / 92° -

Altitude Profile

Advertisement - Login to hide

Weather


0- 5 10 15 20 25 30 35+ Temperature / ° C

Clouds and Precipitation
Forecast for 2018-05-21 00:00 UTC. Updated 2 hours ago

Ground ~20,000 ft ~40,000 ft Winds

UHSS

Details ICAO UHSS (UUS)
Name KHOMUTOVO
Region Russia
Timezone Asia/Sakhalin (UTC+11.0)
Stats Elevation 59 ft / 18 m (AMSL)
Location 46.885582° 142.717529°
Runways 1
Magnetic Variation 10.397° W

METAR

UHSS 210100Z 18002MPS 130V230 9999 NSC 12/03 Q1014 R19/70D NOSIG RMK QFE759/1012

Decode

TAF

TAF UHSS 202300Z 2100/2206 18003MPS 9999 BKN030CB

Decode

Departure Runways

ID Width Length Bearing (true) Bearing (mag) Surface Threshold Offset Overrun Length
01 148 ft / 45 m 11,109 ft / 3,386 m 0.66° 11.06° Concrete 0 ft / 0 m 255 ft / 78 m
19 148 ft / 45 m 11,109 ft / 3,386 m 180.66° 191.06° Concrete 0 ft / 0 m 265 ft / 81 m

UHMM

Details ICAO UHMM (GDX)
Name Magadan Sokol
Region Russia
Timezone Asia/Magadan (UTC+11.0)
Stats Elevation 574 ft / 175 m (AMSL)
Location 59.910989° 150.720439°
Runways 1
Magnetic Variation 10.995° W

METAR

UHMM 210100Z 24003MPS 9999 -SHRA SCT009 OVC017CB 04/03 Q1013 R10/290255 NOSIG RMK MT OBSC QFE745

Decode

TAF

TAF UHMM 202301Z 2100/2206 25003G08MPS 9999 SCT030CB OVC070 TEMPO 2103/2110 30003G08MPS 5000 -SHRA BKN020CB OVC070 TEMPO 2112/2122 3100 BR VV011

Decode

Destination Runways

ID Width Length Bearing (true) Bearing (mag) Surface Threshold Offset Overrun Length
10 194 ft / 59 m 11,299 ft / 3,444 m 93.20° 104.20° Concrete 0 ft / 0 m 1,975 ft / 602 m
28 194 ft / 59 m 11,299 ft / 3,444 m 273.26° 284.26° Concrete 0 ft / 0 m 220 ft / 67 m

Approach Navaids

Runway Type Ident Frequency Range Bearing (true) Bearing (mag) Slope Elevation
10 Glidescope IFK 110.30 MHz 50 nm / 93 km 104.00° 115.00° 2.80° 574 ft / 175 m (AMSL)

Popular Alternatives